This is the latest recevied weather packets stored in our database for station/object KC5TIL. If no packets are shown the sender has not sent any weather packets the latest 10 day(s).
| Time | Temp. | Humidity | Pressure | Rain* | Wind** | Luminosity | Snow |
|---|---|---|---|---|---|---|---|
| 1777294759 | 24.44° C | 87% | 1008.7 hPa | 0 mm | - | 78 W/m² | - |
| 1777294455 | 24.44° C | 87% | 1008.6 hPa | 0 mm | - | 70 W/m² | - |
| 1777294152 | 24.44° C | 87% | 1008.5 hPa | 0 mm | - | 64 W/m² | - |
| 1777293849 | 23.89° C | 88% | 1008.5 hPa | 0 mm | - | 58 W/m² | - |
| 1777293544 | 23.89° C | 88% | 1008.5 hPa | 0 mm | - | 52 W/m² | - |
| 1777293240 | 23.89° C | 88% | 1008.4 hPa | 0 mm | - | 46 W/m² | - |
| 1777292939 | 23.89° C | 89% | 1008.3 hPa | 0 mm | - | 39 W/m² | - |
| 1777292634 | 23.89° C | 89% | 1008.5 hPa | 0 mm | - | 33 W/m² | - |
| 1777292330 | 23.33° C | 89% | 1008.4 hPa | 0 mm | - | 27 W/m² | - |
| 1777292027 | 23.33° C | 89% | 1008.4 hPa | 0 mm | - | 21 W/m² | - |
| 1777291724 | 23.33° C | 89% | 1008.1 hPa | 0 mm | - | 16 W/m² | - |
| 1777291421 | 23.33° C | 89% | 1008 hPa | 0 mm | - | 12 W/m² | - |
| 1777291117 | 23.33° C | 89% | 1008 hPa | 0 mm | - | 9 W/m² | - |
| 1777290814 | 23.33° C | 89% | 1008 hPa | 0 mm | - | 4 W/m² | - |
| 1777290511 | 23.89° C | 89% | 1007.7 hPa | 0 mm | - | 2 W/m² | - |
| 1777290207 | 23.89° C | 89% | 1007.9 hPa | 0 mm | - | 0 W/m² | - |
| 1777289904 | 23.89° C | 88% | 1007.8 hPa | 0 mm | - | 0 W/m² | - |
| 1777289600 | 23.89° C | 88% | 1007.7 hPa | 0 mm | - | 0 W/m² | - |
| 1777289296 | 23.89° C | 88% | 1007.6 hPa | 0 mm | - | 0 W/m² | - |
| 1777288992 | 23.89° C | 88% | 1007.9 hPa | 0 mm | - | 0 W/m² | - |
| 1777288689 | 23.89° C | 87% | 1007.7 hPa | 0 mm | - | 0 W/m² | - |
| 1777288386 | 23.89° C | 88% | 1007.7 hPa | 0 mm | - | 0 W/m² | - |
| 1777288082 | 23.89° C | 87% | 1007.8 hPa | 0 mm | - | 0 W/m² | - |
| 1777287779 | 23.89° C | 87% | 1007.7 hPa | 0 mm | - | 0 W/m² | - |
| 1777287475 | 23.89° C | 88% | 1007.7 hPa | 0 mm | - | 0 W/m² | - |
* Rain latest hour (hover to see other rain measurements)
** Current wind speed in m/s (hover to see current wind gust speed)